FLOCK 4V-17 (46529 NORAD) Tracking and Keplerian Element Data

This shows tracking and keplerian element data for the satellite.

Feedback or suggestion? Click here.




ElementValue
Catalog46529
NameFLOCK 4V-17
Epoch Orbit838
Epoch Day331.71388051
Epoch Year2020
RAAN43.3227
Inclination97.4563
Eccentricity0.0002192
Argument of Perigee337.681
Mean Anonmoly22.4327
Mean Motion15.15988887
Decay Rate1.463E-05
L11 46529U 20061BF 20331.71388051 .00001463 00000-0 79635-4 0 9995
L22 46529 97.4563 43.3227 0002192 337.6810 22.4327 15.15988887 8384

Live tracking and technical data element details for FLOCK 4V-17 (NORAD 46529). FLOCK 4V-17 can be tracked NOW for your location showing map with azimuth and elevation plus other details from your city location.

Track the satellite on the map from your city or location and see movement details for azimuth, elevation, latitude, longitude, range, height, and movement on the map or in text.







IsCatalogInMostPopularTable: catalog: 46529, numindb: 11
Update: records affected: 1



GetName: 46529 FLOCK 4V-17

Hit Count: updated at: Fri, 27 Nov 2020 15:16:00 GMT